| time (UTC) | temp F | wind direction | speed MPH | gust MPH | rain 1hr in | rain 24hr in | rain mn in | humidity % | barometer mb |
| 20260506112150 | 56 | 337 | 0.0 | 0.0 | 0.00 | 0.20 | 0.00 | 79 | 5003.5 |
| 20260506111650 | 56 | 315 | 0.0 | 0.0 | 0.00 | 0.20 | 0.00 | 79 | 5003.4 |
| 20260506111150 | 56 | 315 | 0.0 | 0.0 | 0.00 | 0.20 | 0.00 | 79 | 5003.4 |
| 20260506110650 | 57 | 22 | 0.0 | 0.0 | 0.00 | 0.20 | 0.00 | 78 | 5003.3 |
| 20260506110150 | 57 | 0 | 0.0 | 0.0 | 0.00 | 0.20 | 0.00 | 79 | 5003.3 |
| 20260506105650 | 57 | 337 | 0.0 | 0.0 | 0.00 | 0.22 | 0.00 | 79 | 5003.3 |
| 20260506105150 | 58 | 337 | 0.0 | 0.0 | 0.00 | 0.22 | 0.00 | 78 | 5003.3 |
| 20260506104650 | 58 | 337 | 0.0 | 0.0 | 0.00 | 0.22 | 0.00 | 77 | 5003.4 |
| 20260506104150 | 59 | 315 | 0.0 | 0.0 | 0.00 | 0.22 | 0.00 | 78 | 5003.4 |
| 20260506103650 | 59 | 270 | 0.0 | 0.0 | 0.00 | 0.22 | 0.00 | 80 | 5003.2 |
| 20260506103150 | 58 | 292 | 0.0 | 0.0 | 0.00 | 0.22 | 0.00 | 79 | 5003.0 |
| 20260506102650 | 58 | 315 | 0.0 | 0.0 | 0.00 | 0.22 | 0.00 | 79 | 5003.0 |
| 20260506102150 | 58 | 315 | 0.0 | 0.0 | 0.00 | 0.22 | 0.00 | 79 | 5003.1 |
| 20260506101650 | 59 | 315 | 0.0 | 0.0 | 0.00 | 0.22 | 0.00 | 79 | 5003.0 |
| 20260506101150 | 59 | 315 | 0.0 | 0.0 | 0.00 | 0.22 | 0.00 | 80 | 5003.0 |
| 20260506100650 | 59 | 337 | 0.0 | 0.0 | 0.02 | 0.22 | 0.00 | 81 | 5002.8 |
| 20260506100150 | 58 | 315 | 0.0 | 0.0 | 0.02 | 0.22 | 0.00 | 83 | 5003.0 |
| 20260506095650 | 57 | 292 | 0.0 | 0.0 | 0.02 | 0.22 | 0.00 | 84 | 5002.9 |
| 20260506095150 | 57 | 315 | 0.0 | 0.0 | 0.02 | 0.22 | 0.00 | 86 | 5002.9 |
| 20260506094650 | 56 | 315 | 0.0 | 0.0 | 0.02 | 0.22 | 0.00 | 88 | 5002.8 |
| 20260506094152 | 55 | 292 | 0.0 | 0.0 | 0.02 | 0.22 | 0.00 | 88 | 5002.8 |
| 20260506093650 | 55 | 315 | 0.0 | 0.0 | 0.02 | 0.22 | 0.00 | 89 | 5002.9 |
| 20260506093150 | 54 | 315 | 0.0 | 0.0 | 0.02 | 0.22 | 0.00 | 89 | 5002.8 |
| 20260506092650 | 54 | 315 | 0.0 | 0.0 | 0.02 | 0.22 | 0.00 | 88 | 5002.8 |
| 20260506092150 | 54 | 315 | 0.0 | 0.0 | 0.02 | 0.22 | 0.00 | 87 | 5002.9 |
| 20260506091650 | 54 | 292 | 0.0 | 0.0 | 0.02 | 0.22 | 0.00 | 86 | 5002.9 |
| 20260506091150 | 55 | 292 | 0.0 | 0.0 | 0.00 | 0.20 | 0.00 | 85 | 5002.9 |
| 20260506090650 | 55 | 292 | 0.0 | 0.0 | 0.00 | 0.20 | 0.00 | 85 | 5002.7 |
| 20260506090150 | 57 | 292 | 0.0 | 0.0 | 0.00 | 0.20 | 0.00 | 83 | 5002.8 |
| 20260506085650 | 58 | 292 | 0.0 | 0.0 | 0.00 | 0.20 | 0.00 | 83 | 5002.7 |
| 20260506085150 | 58 | 180 | 0.0 | 0.0 | 0.00 | 0.20 | 0.00 | 84 | 5002.6 |
| 20260506084650 | 58 | 157 | 0.0 | 0.0 | 0.00 | 0.20 | 0.00 | 84 | 5002.6 |
| 20260506084150 | 58 | 180 | 0.0 | 0.0 | 0.00 | 0.20 | 0.00 | 86 | 5002.5 |
| 20260506083650 | 57 | 135 | 0.0 | 0.0 | 0.00 | 0.20 | 0.00 | 86 | 5002.5 |
| 20260506083150 | 56 | 180 | 0.0 | 0.0 | 0.00 | 0.20 | 0.00 | 85 | 5002.6 |
| 20260506082650 | 57 | 180 | 0.0 | 0.0 | 0.00 | 0.20 | 0.00 | 86 | 5002.6 |
| 20260506082150 | 56 | 180 | 0.0 | 0.0 | 0.00 | 0.20 | 0.00 | 85 | 5002.6 |
| 20260506081650 | 57 | 202 | 0.0 | 0.0 | 0.00 | 0.20 | 0.00 | 86 | 5002.6 |
| 20260506081150 | 57 | 157 | 0.0 | 0.0 | 0.00 | 0.20 | 0.00 | 87 | 5002.4 |
| 20260506080650 | 56 | 157 | 0.0 | 0.0 | 0.00 | 0.20 | 0.00 | 87 | 5002.3 |
| 20260506080150 | 56 | 157 | 0.0 | 0.0 | 0.00 | 0.20 | 0.00 | 88 | 5002.4 |
| 20260506073150 | 53 | 180 | 0.0 | 0.0 | 0.00 | 0.20 | 0.00 | 93 | 5002.5 |
| 20260506072650 | 52 | 202 | 0.0 | 0.0 | 0.00 | 0.20 | 0.00 | 93 | 5002.6 |
| 20260506072157 | 52 | 180 | 0.0 | 0.0 | 0.00 | 0.20 | 0.00 | 93 | 5002.6 |
| 20260506072150 | 52 | 180 | 0.0 | 0.0 | 0.00 | 0.20 | 0.00 | 93 | 5002.6 |
| 20260506071650 | 52 | 180 | 0.0 | 0.0 | 0.00 | 0.20 | 0.00 | 93 | 5002.5 |
| 20260506071150 | 52 | 202 | 0.0 | 0.0 | 0.00 | 0.20 | 0.00 | 93 | 5002.6 |
| 20260506070650 | 52 | 180 | 0.0 | 0.0 | 0.00 | 0.20 | 0.00 | 93 | 5002.6 |
| 20260506070150 | 52 | 202 | 0.0 | 0.0 | 0.00 | 0.20 | 0.00 | 93 | 5002.5 |
| 20260506062150 | 51 | 157 | 0.0 | 0.0 | 0.02 | 0.20 | 0.00 | 92 | 5002.3 |
| 20260506061650 | 51 | 180 | 0.0 | 0.0 | 0.02 | 0.20 | 0.00 | 92 | 5002.2 |
| 20260506061150 | 51 | 135 | 0.0 | 0.0 | 0.02 | 0.20 | 0.00 | 92 | 5002.4 |
| 20260506060650 | 51 | 180 | 0.0 | 0.0 | 0.02 | 0.20 | 0.00 | 92 | 5002.4 |
| 20260506060150 | 51 | 157 | 0.0 | 0.0 | 0.02 | 0.20 | 0.00 | 92 | 5002.4 |
| 20260506051150 | 52 | 180 | 0.0 | 0.0 | 0.00 | 0.18 | 0.00 | 92 | 5002.1 |
| 20260506050650 | 52 | 180 | 0.0 | 0.0 | 0.00 | 0.18 | 0.00 | 92 | 5002.1 |
| 20260506050150 | 52 | 157 | 0.0 | 0.0 | 0.00 | 0.18 | 0.00 | 92 | 5002.1 |
| 20260506044650 | 51 | 180 | 0.0 | 0.0 | 0.00 | 0.18 | 0.00 | 92 | 5002.1 |
| 20260506044151 | 51 | 157 | 0.0 | 0.0 | 0.00 | 0.18 | 0.00 | 93 | 5002.1 |
| 20260506043650 | 51 | 180 | 0.0 | 0.0 | 0.00 | 0.18 | 0.00 | 93 | 5002.1 |
| 20260506043150 | 51 | 180 | 0.0 | 0.0 | 0.00 | 0.18 | 0.00 | 93 | 5002.2 |
| 20260506042650 | 51 | 157 | 0.0 | 0.0 | 0.00 | 0.18 | 0.00 | 93 | 5002.1 |
| 20260506042150 | 51 | 180 | 0.0 | 0.0 | 0.00 | 0.18 | 0.00 | 93 | 5002.2 |
| 20260506041651 | 51 | 157 | 0.0 | 0.0 | 0.00 | 0.18 | 0.00 | 93 | 5002.1 |
| 20260506041151 | 52 | 180 | 0.0 | 0.0 | 0.00 | 0.18 | 0.00 | 93 | 5002.1 |
| 20260506040650 | 51 | 180 | 0.0 | 0.0 | 0.00 | 0.18 | 0.00 | 93 | 5002.2 |
| 20260506040151 | 52 | 180 | 0.0 | 0.0 | 0.00 | 0.18 | 0.00 | 93 | 5002.1 |
| 20260506035650 | 52 | 180 | 0.0 | 0.0 | 0.00 | 0.18 | 0.00 | 93 | 5002.3 |
| 20260506035151 | 52 | 157 | 0.0 | 0.0 | 0.00 | 0.18 | 0.00 | 93 | 5002.3 |
| 20260506034650 | 51 | 180 | 0.0 | 0.0 | 0.00 | 0.18 | 0.00 | 93 | 5002.5 |
| 20260506034150 | 52 | 180 | 0.0 | 0.0 | 0.00 | 0.18 | 0.00 | 93 | 5002.6 |
| 20260506033651 | 52 | 180 | 0.0 | 0.0 | 0.00 | 0.18 | 0.00 | 93 | 5002.6 |
| 20260506033151 | 52 | 202 | 0.0 | 0.0 | 0.00 | 0.18 | 0.00 | 93 | 5002.7 |
| 20260506032651 | 52 | 180 | 0.0 | 0.0 | 0.00 | 0.18 | 0.00 | 93 | 5002.7 |
| 20260506032151 | 52 | 180 | 0.0 | 0.0 | 0.00 | 0.18 | 0.00 | 93 | 5002.8 |
| 20260506031651 | 52 | 180 | 0.0 | 0.0 | 0.00 | 0.18 | 0.00 | 93 | 5002.8 |
| 20260506031151 | 52 | 180 | 0.0 | 0.0 | 0.00 | 0.18 | 0.00 | 93 | 5002.8 |
| 20260506030651 | 52 | 202 | 0.0 | 0.0 | 0.00 | 0.18 | 0.00 | 94 | 5002.7 |
| 20260506030151 | 52 | 180 | 0.0 | 0.0 | 0.00 | 0.18 | 0.00 | 94 | 5002.7 |
| 20260506025651 | 52 | 180 | 0.0 | 0.0 | 0.00 | 0.18 | 0.00 | 94 | 5002.7 |
| 20260506025151 | 52 | 202 | 0.0 | 0.0 | 0.00 | 0.18 | 0.00 | 94 | 5002.8 |
| 20260506024651 | 53 | 157 | 0.0 | 0.0 | 0.00 | 0.18 | 0.00 | 94 | 5002.7 |
| 20260506024151 | 52 | 180 | 0.0 | 0.0 | 0.00 | 0.18 | 0.00 | 94 | 5002.7 |
| 20260506023651 | 52 | 180 | 0.0 | 0.0 | 0.00 | 0.18 | 0.00 | 94 | 5002.6 |
| 20260506023151 | 52 | 180 | 0.0 | 0.0 | 0.00 | 0.18 | 0.00 | 94 | 5002.6 |
| 20260506022651 | 52 | 180 | 0.0 | 0.0 | 0.00 | 0.18 | 0.00 | 94 | 5002.7 |
| 20260506022151 | 52 | 180 | 0.0 | 0.0 | 0.00 | 0.18 | 0.00 | 94 | 5002.6 |
| 20260506021651 | 52 | 157 | 0.0 | 0.0 | 0.00 | 0.18 | 0.00 | 94 | 5002.6 |
| 20260506021151 | 52 | 180 | 0.0 | 0.0 | 0.00 | 0.18 | 0.00 | 94 | 5002.6 |
| 20260506020651 | 52 | 180 | 0.0 | 0.0 | 0.00 | 0.18 | 0.00 | 94 | 5002.5 |
| 20260506020151 | 52 | 180 | 0.0 | 0.0 | 0.00 | 0.18 | 0.00 | 93 | 5002.6 |
| 20260506015651 | 52 | 180 | 0.0 | 0.0 | 0.00 | 0.18 | 0.00 | 93 | 5002.7 |
| 20260506015151 | 51 | 157 | 0.0 | 0.0 | 0.00 | 0.18 | 0.00 | 93 | 5002.8 |
| 20260506014651 | 51 | 180 | 0.0 | 0.0 | 0.00 | 0.18 | 0.00 | 93 | 5002.7 |
| 20260506014151 | 51 | 180 | 0.0 | 0.0 | 0.00 | 0.18 | 0.00 | 93 | 5002.7 |
| 20260506013651 | 51 | 180 | 0.0 | 0.0 | 0.00 | 0.18 | 0.00 | 93 | 5002.7 |
| 20260506013151 | 51 | 180 | 0.0 | 0.0 | 0.00 | 0.18 | 0.00 | 93 | 5002.8 |
| 20260506012651 | 51 | 157 | 0.0 | 0.0 | 0.00 | 0.18 | 0.00 | 93 | 5002.8 |
| 20260506012151 | 51 | 180 | 0.0 | 0.0 | 0.00 | 0.18 | 0.00 | 93 | 5002.8 |
| 20260506011651 | 51 | 180 | 0.0 | 0.0 | 0.00 | 0.18 | 0.00 | 93 | 5002.8 |
| 20260506011151 | 51 | 180 | 0.0 | 0.0 | 0.00 | 0.18 | 0.00 | 93 | 5002.8 |
| 20260506010651 | 51 | 202 | 0.0 | 0.0 | 0.00 | 0.18 | 0.00 | 93 | 5002.9 |
| 20260506010151 | 51 | 202 | 0.0 | 0.0 | 0.00 | 0.18 | 0.00 | 93 | 5003.1 |
| 20260506005651 | 51 | 180 | 0.0 | 0.0 | 0.00 | 0.18 | 0.00 | 93 | 5003.1 |
| 20260506005151 | 51 | 180 | 0.0 | 0.0 | 0.00 | 0.18 | 0.00 | 92 | 5003.0 |
| 20260506004651 | 51 | 180 | 0.0 | 0.0 | 0.00 | 0.18 | 0.00 | 92 | 5003.1 |
| 20260506004151 | 51 | 180 | 0.0 | 0.0 | 0.00 | 0.18 | 0.00 | 92 | 5003.2 |
| 20260506003651 | 52 | 180 | 0.0 | 0.0 | 0.00 | 0.18 | 0.00 | 92 | 5003.2 |
| 20260506003151 | 52 | 180 | 0.0 | 0.0 | 0.00 | 0.18 | 0.00 | 92 | 5003.2 |
| 20260506002651 | 52 | 180 | 0.0 | 0.0 | 0.00 | 0.18 | 0.00 | 92 | 5003.2 |
| 20260506002151 | 52 | 180 | 0.0 | 0.0 | 0.00 | 0.18 | 0.00 | 92 | 5003.2 |
| 20260506001651 | 52 | 180 | 0.0 | 0.0 | 0.00 | 0.18 | 0.00 | 92 | 5003.5 |
| 20260506001151 | 52 | 180 | 0.0 | 0.0 | 0.00 | 0.18 | 0.00 | 92 | 5003.6 |
| 20260506000651 | 52 | 180 | 0.0 | 0.0 | 0.00 | 0.18 | 0.00 | 92 | 5003.7 |
| 20260506000151 | 52 | 157 | 0.0 | 0.0 | 0.00 | 0.18 | 0.00 | 92 | 5003.6 |
| 20260505235651 | 52 | 202 | 0.0 | 0.0 | 0.00 | 0.18 | 0.00 | 92 | 5003.5 |
| 20260505235151 | 52 | 180 | 0.0 | 0.0 | 0.00 | 0.18 | 0.00 | 92 | 5003.7 |
| 20260505234651 | 53 | 180 | 0.0 | 0.0 | 0.00 | 0.18 | 0.00 | 92 | 5003.7 |
| 20260505234151 | 53 | 180 | 0.0 | 0.0 | 0.00 | 0.18 | 0.00 | 92 | 5003.7 |
| 20260505233651 | 53 | 180 | 0.0 | 0.0 | 0.00 | 0.18 | 0.00 | 92 | 5003.6 |
| 20260505233151 | 53 | 180 | 0.0 | 0.0 | 0.00 | 0.18 | 0.00 | 92 | 5003.7 |
| 20260505232651 | 53 | 180 | 0.0 | 0.0 | 0.00 | 0.18 | 0.00 | 92 | 5003.7 |
| 20260505232151 | 53 | 180 | 0.0 | 0.0 | 0.00 | 0.18 | 0.00 | 92 | 5003.7 |
| 20260505231651 | 53 | 180 | 0.0 | 0.0 | 0.00 | 0.18 | 0.00 | 92 | 5003.7 |
| 20260505231151 | 53 | 180 | 0.0 | 0.0 | 0.00 | 0.18 | 0.00 | 92 | 5003.6 |
| 20260505230651 | 53 | 157 | 0.0 | 0.0 | 0.00 | 0.18 | 0.00 | 92 | 5003.5 |
| 20260505230151 | 53 | 157 | 0.0 | 0.0 | 0.00 | 0.18 | 0.00 | 92 | 5003.6 |
| 20260505225651 | 53 | 157 | 0.0 | 0.0 | 0.00 | 0.18 | 0.00 | 92 | 5003.5 |
| 20260505225151 | 54 | 180 | 0.0 | 0.0 | 0.00 | 0.18 | 0.00 | 92 | 5003.6 |
| 20260505224651 | 54 | 180 | 0.0 | 0.0 | 0.00 | 0.18 | 0.00 | 92 | 5003.5 |
| 20260505224151 | 54 | 157 | 0.0 | 0.0 | 0.00 | 0.18 | 0.00 | 92 | 5003.6 |
| 20260505223651 | 53 | 180 | 0.0 | 0.0 | 0.00 | 0.18 | 0.00 | 92 | 5003.8 |
| 20260505223151 | 53 | 180 | 0.0 | 0.0 | 0.00 | 0.18 | 0.00 | 92 | 5003.9 |
| 20260505222651 | 53 | 157 | 0.0 | 0.0 | 0.00 | 0.18 | 0.00 | 92 | 5003.8 |
| 20260505222151 | 53 | 157 | 0.0 | 0.0 | 0.00 | 0.18 | 0.00 | 92 | 5003.8 |
| 20260505221651 | 53 | 180 | 0.0 | 0.0 | 0.00 | 0.18 | 0.00 | 92 | 5003.9 |
| 20260505221151 | 53 | 157 | 0.0 | 0.0 | 0.00 | 0.18 | 0.00 | 92 | 5003.9 |
| 20260505220651 | 54 | 180 | 0.0 | 0.0 | 0.00 | 0.18 | 0.00 | 92 | 5004.0 |
| 20260505220151 | 54 | 157 | 0.0 | 0.0 | 0.00 | 0.18 | 0.00 | 92 | 5003.9 |
| 20260505215651 | 54 | 180 | 0.0 | 0.0 | 0.00 | 0.18 | 0.00 | 92 | 5003.9 |
| 20260505215151 | 54 | 180 | 0.0 | 0.0 | 0.00 | 0.18 | 0.00 | 92 | 5003.9 |
| 20260505214651 | 54 | 180 | 0.0 | 0.0 | 0.00 | 0.18 | 0.00 | 92 | 5003.9 |
| 20260505214151 | 55 | 180 | 0.0 | 0.0 | 0.00 | 0.18 | 0.00 | 92 | 5003.9 |
| 20260505213651 | 54 | 180 | 0.0 | 0.0 | 0.00 | 0.18 | 0.00 | 92 | 5003.9 |
| 20260505213151 | 55 | 180 | 0.0 | 0.0 | 0.00 | 0.18 | 0.00 | 92 | 5003.9 |
| 20260505212651 | 55 | 180 | 0.0 | 0.0 | 0.00 | 0.18 | 0.00 | 92 | 5003.9 |
| 20260505212151 | 55 | 202 | 0.0 | 0.0 | 0.00 | 0.18 | 0.00 | 92 | 5004.0 |
| 20260505211651 | 55 | 180 | 0.0 | 0.0 | 0.00 | 0.18 | 0.00 | 92 | 5003.9 |
| 20260505211151 | 55 | 157 | 0.0 | 0.0 | 0.00 | 0.18 | 0.00 | 92 | 5004.0 |
| 20260505210651 | 55 | 180 | 0.0 | 0.0 | 0.00 | 0.18 | 0.00 | 92 | 5004.0 |
| 20260505210151 | 55 | 180 | 0.0 | 0.0 | 0.00 | 0.18 | 0.00 | 92 | 5004.3 |
| 20260505205651 | 55 | 180 | 0.0 | 0.0 | 0.00 | 0.18 | 0.00 | 92 | 5004.2 |
| 20260505205151 | 55 | 180 | 0.0 | 0.0 | 0.00 | 0.18 | 0.00 | 92 | 5004.2 |
| 20260505204651 | 55 | 180 | 0.0 | 0.0 | 0.00 | 0.18 | 0.00 | 92 | 5004.1 |
| 20260505204151 | 55 | 225 | 0.0 | 0.0 | 0.02 | 0.18 | 0.00 | 92 | 5004.1 |
| 20260505203651 | 55 | 180 | 0.0 | 0.0 | 0.02 | 0.18 | 0.00 | 92 | 5004.1 |
| 20260505203151 | 55 | 202 | 0.0 | 0.0 | 0.02 | 0.18 | 0.00 | 92 | 5004.1 |
| 20260505202651 | 55 | 202 | 0.0 | 0.0 | 0.02 | 0.18 | 0.00 | 92 | 5004.0 |
| 20260505202151 | 55 | 180 | 0.0 | 0.0 | 0.02 | 0.18 | 0.00 | 91 | 5003.9 |
| 20260505201651 | 55 | 180 | 0.0 | 0.0 | 0.04 | 0.18 | 0.00 | 91 | 5003.9 |
| 20260505201151 | 55 | 202 | 0.0 | 0.0 | 0.04 | 0.18 | 0.00 | 91 | 5003.9 |
| 20260505200724 | 55 | 202 | 0.0 | 0.0 | 0.04 | 0.18 | 0.00 | 91 | 5003.8 |
| 20260505200651 | 55 | 202 | 0.0 | 0.0 | 0.04 | 0.18 | 0.00 | 91 | 5003.8 |
| 20260505200151 | 55 | 202 | 0.0 | 0.0 | 0.04 | 0.18 | 0.00 | 91 | 5003.8 |
| 20260505195651 | 55 | 135 | 0.0 | 0.0 | 0.04 | 0.18 | 0.00 | 91 | 5003.7 |
| 20260505195151 | 55 | 292 | 0.0 | 0.0 | 0.04 | 0.18 | 0.00 | 91 | 5003.7 |
| 20260505194651 | 55 | 157 | 0.0 | 0.0 | 0.06 | 0.18 | 0.00 | 91 | 5003.7 |
| 20260505194151 | 55 | 135 | 0.0 | 0.0 | 0.04 | 0.16 | 0.00 | 90 | 5003.6 |
| 20260505193651 | 55 | 135 | 0.0 | 0.0 | 0.04 | 0.16 | 0.00 | 90 | 5003.6 |
| 20260505193151 | 55 | 135 | 0.0 | 0.0 | 0.04 | 0.16 | 0.00 | 90 | 5003.5 |
| 20260505192651 | 55 | 135 | 0.0 | 0.0 | 0.06 | 0.16 | 0.00 | 90 | 5003.4 |
| 20260505192151 | 55 | 112 | 0.0 | 0.0 | 0.04 | 0.14 | 0.00 | 90 | 5003.6 |
| 20260505191651 | 55 | 112 | 0.0 | 0.0 | 0.06 | 0.14 | 0.00 | 90 | 5003.7 |
| 20260505191152 | 55 | 112 | 0.0 | 0.0 | 0.06 | 0.14 | 0.00 | 89 | 5003.7 |
| 20260505190651 | 55 | 135 | 0.0 | 0.0 | 0.06 | 0.14 | 0.00 | 89 | 5003.7 |
| 20260505190151 | 55 | 112 | 0.0 | 0.0 | 0.06 | 0.14 | 0.00 | 89 | 5003.6 |
| 20260505185651 | 55 | 67 | 0.0 | 0.0 | 0.06 | 0.14 | 0.00 | 89 | 5003.5 |
| 20260505185151 | 55 | 67 | 0.0 | 0.0 | 0.06 | 0.14 | 0.00 | 88 | 5003.5 |
| 20260505184651 | 55 | 67 | 0.0 | 0.0 | 0.04 | 0.12 | 0.00 | 88 | 5003.6 |
| 20260505184151 | 56 | 67 | 0.0 | 0.0 | 0.04 | 0.12 | 0.00 | 88 | 5003.7 |
| 20260505183651 | 56 | 90 | 0.0 | 0.0 | 0.04 | 0.12 | 0.00 | 87 | 5003.7 |
| 20260505183151 | 56 | 90 | 0.0 | 0.0 | 0.04 | 0.12 | 0.00 | 87 | 5003.6 |
| 20260505182651 | 56 | 135 | 0.0 | 0.0 | 0.02 | 0.10 | 0.00 | 86 | 5003.6 |
| 20260505182151 | 56 | 135 | 0.0 | 0.0 | 0.00 | 0.08 | 0.00 | 86 | 5003.6 |
| 20260505181651 | 56 | 135 | 0.0 | 0.0 | 0.00 | 0.08 | 0.00 | 86 | 5003.6 |
| 20260505181151 | 56 | 135 | 0.0 | 0.0 | 0.00 | 0.08 | 0.00 | 85 | 5003.8 |
| 20260505180651 | 57 | 135 | 0.0 | 0.0 | 0.00 | 0.08 | 0.00 | 85 | 5003.8 |
| 20260505180151 | 57 | 135 | 0.0 | 0.0 | 0.00 | 0.08 | 0.00 | 85 | 5003.8 |
| 20260505175652 | 57 | 135 | 0.0 | 0.0 | 0.00 | 0.08 | 0.00 | 84 | 5003.6 |
| 20260505175151 | 57 | 135 | 0.0 | 0.0 | 0.00 | 0.08 | 0.00 | 84 | 5003.6 |
| 20260505174652 | 57 | 135 | 0.0 | 0.0 | 0.00 | 0.08 | 0.00 | 83 | 5003.9 |
| 20260505174151 | 58 | 157 | 0.0 | 0.0 | 0.00 | 0.08 | 0.00 | 83 | 5004.0 |
| 20260505173652 | 58 | 157 | 0.0 | 0.0 | 0.00 | 0.08 | 0.00 | 83 | 5003.9 |
| 20260505173152 | 58 | 157 | 0.0 | 0.0 | 0.00 | 0.08 | 0.00 | 82 | 5004.1 |
| 20260505172652 | 59 | 157 | 0.0 | 0.0 | 0.00 | 0.08 | 0.00 | 82 | 5003.9 |
| 20260505172152 | 59 | 157 | 0.0 | 0.0 | 0.00 | 0.08 | 0.00 | 82 | 5004.0 |
| 20260505171652 | 59 | 157 | 0.0 | 0.0 | 0.00 | 0.08 | 0.00 | 82 | 5003.9 |
| 20260505171152 | 59 | 157 | 0.0 | 0.0 | 0.00 | 0.08 | 0.00 | 82 | 5004.0 |
| 20260505170652 | 60 | 157 | 0.0 | 0.0 | 0.00 | 0.08 | 0.00 | 81 | 5004.1 |
| 20260505170152 | 60 | 157 | 0.0 | 0.0 | 0.00 | 0.08 | 0.00 | 81 | 5004.1 |
| 20260505165652 | 60 | 157 | 0.0 | 0.0 | 0.00 | 0.08 | 0.00 | 80 | 5004.1 |
| 20260505165152 | 60 | 157 | 0.0 | 0.0 | 0.00 | 0.08 | 0.00 | 81 | 5004.0 |
| 20260505164652 | 60 | 157 | 0.0 | 0.0 | 0.00 | 0.08 | 0.00 | 81 | 5003.9 |
| 20260505164152 | 60 | 157 | 0.0 | 0.0 | 0.00 | 0.08 | 0.00 | 81 | 5003.9 |
| 20260505163652 | 60 | 157 | 0.0 | 0.0 | 0.00 | 0.08 | 0.00 | 82 | 5004.0 |
| 20260505163152 | 60 | 157 | 0.0 | 0.0 | 0.00 | 0.08 | 0.00 | 82 | 5004.0 |
| 20260505162652 | 60 | 157 | 0.0 | 0.0 | 0.00 | 0.08 | 0.00 | 82 | 5004.0 |
| 20260505162152 | 60 | 157 | 0.0 | 0.0 | 0.00 | 0.08 | 0.00 | 82 | 5003.9 |
| 20260505161652 | 60 | 157 | 0.0 | 0.0 | 0.00 | 0.08 | 0.00 | 83 | 5003.9 |
| 20260505161152 | 60 | 157 | 0.0 | 0.0 | 0.00 | 0.08 | 0.00 | 84 | 5004.0 |
| 20260505160652 | 59 | 157 | 0.0 | 0.0 | 0.00 | 0.08 | 0.00 | 85 | 5004.0 |
| 20260505160152 | 59 | 157 | 0.0 | 0.0 | 0.00 | 0.08 | 0.00 | 84 | 5004.1 |
| 20260505153152 | 58 | 157 | 0.0 | 0.0 | 0.02 | 0.08 | 0.00 | 85 | 5004.4 |
| 20260505152652 | 58 | 157 | 0.0 | 0.0 | 0.02 | 0.08 | 0.00 | 85 | 5004.3 |
| 20260505152152 | 58 | 180 | 0.0 | 0.0 | 0.02 | 0.08 | 0.00 | 85 | 5004.4 |
| 20260505151652 | 58 | 180 | 0.0 | 0.0 | 0.02 | 0.08 | 0.00 | 86 | 5004.3 |
| 20260505151152 | 58 | 180 | 0.0 | 0.0 | 0.02 | 0.08 | 0.00 | 85 | 5004.2 |
| 20260505150652 | 58 | 180 | 0.0 | 0.0 | 0.02 | 0.08 | 0.00 | 84 | 5004.6 |
| 20260505150152 | 58 | 180 | 0.0 | 0.0 | 0.02 | 0.08 | 0.00 | 84 | 5004.6 |
| 20260505140652 | 58 | 202 | 0.0 | 0.0 | 0.02 | 0.06 | 0.00 | 83 | 5004.9 |
| 20260505140152 | 57 | 202 | 0.0 | 0.0 | 0.02 | 0.06 | 0.00 | 83 | 5004.9 |
| 20260505130152 | 57 | 180 | 0.0 | 0.0 | 0.02 | 0.04 | 0.00 | 83 | 5005.3 |
| 20260505124652 | 57 | 180 | 0.0 | 0.0 | 0.04 | 0.04 | 0.00 | 83 | 5005.4 |
| 20260505124152 | 57 | 45 | 0.0 | 0.0 | 0.04 | 0.04 | 0.00 | 83 | 5005.4 |
| 20260505123652 | 57 | 180 | 0.0 | 0.0 | 0.04 | 0.04 | 0.00 | 83 | 5005.5 |
| 20260505123152 | 57 | 202 | 0.0 | 0.0 | 0.04 | 0.04 | 0.00 | 83 | 5005.4 |
| 20260505122652 | 58 | 180 | 0.0 | 0.0 | 0.02 | 0.02 | 0.00 | 82 | 5005.4 |
| 20260505122152 | 58 | 180 | 0.0 | 0.0 | 0.02 | 0.02 | 0.00 | 81 | 5005.6 |
| 20260505121652 | 58 | 157 | 0.0 | 0.0 | 0.02 | 0.02 | 0.00 | 81 | 5005.6 |
| 20260505121152 | 58 | 202 | 0.0 | 0.0 | 0.02 | 0.02 | 0.00 | 80 | 5005.5 |
| 20260505120652 | 59 | 247 | 0.0 | 0.0 | 0.02 | 0.02 | 0.00 | 80 | 5005.6 |
| 20260505120152 | 59 | 202 | 0.0 | 0.0 | 0.02 | 0.02 | 0.00 | 80 | 5005.5 |
| 20260505115652 | 59 | 180 | 0.0 | 0.0 | 0.02 | 0.02 | 0.00 | 79 | 5005.5 |
| 20260505115152 | 59 | 180 | 0.0 | 0.0 | 0.00 | 0.00 | 0.00 | 78 | 5005.6 |
| 20260505114652 | 60 | 180 | 0.0 | 0.0 | 0.00 | 0.00 | 0.00 | 76 | 5005.5 |
| 20260505114153 | 60 | 135 | 0.0 | 0.0 | 0.00 | 0.00 | 0.00 | 74 | 5005.6 |
| 20260505113652 | 61 | 202 | 0.0 | 0.0 | 0.00 | 0.00 | 0.00 | 71 | 5005.7 |
| 20260505113152 | 63 | 157 | 0.0 | 0.0 | 0.00 | 0.00 | 0.00 | 68 | 5005.7 |
| 20260505112652 | 64 | 135 | 0.0 | 0.0 | 0.00 | 0.00 | 0.00 | 65 | 5005.7 |